When you browse on this site, cookies collect data to enhance your experience and personalize the content and advertising you see.
Visit our Privacy Policy to learn more. By continuing to use the site, you agree to this use of cookies and data.
  • In Hungary
  • List of Countries
  • For 7 days
  • Water Temperature
  • Satellite Maps
  • Weather Map
  • News
  • Weather Widgets
  • user-avatar
    Login

    Hourly Weather Juchen

    Today, 17 February, Sunday

    Time Temperature Precipitation Wind Pressure Humidity
    00:00 +8°C° 0 mm 1 mps 761 mmHg 74%
    01:00 +8°C° 0 mm 1 mps 761 mmHg 73%
    02:00 +7°C° 0 mm 2 mps 761 mmHg 72%
    03:00 +6°C° 0 mm 2 mps 760 mmHg 72%
    04:00 +6°C° 0 mm 2 mps 760 mmHg 72%
    05:00 +6°C° 0 mm 2 mps 760 mmHg 73%
    06:00 +6°C° 0 mm 2 mps 760 mmHg 75%
    07:00 +7°C° 0 mm 2 mps 760 mmHg 72%
    08:00 +8°C° 0 mm 3 mps 759 mmHg 69%
    09:00 +9°C° 0 mm 3 mps 759 mmHg 66%
    10:00 +10°C° 0 mm 3 mps 759 mmHg 60%
    11:00 +12°C° 0 mm 3 mps 759 mmHg 55%
    12:00 +15°C° 0 mm 2 mps 759 mmHg 50%
    13:00 +16°C° 0 mm 2 mps 758 mmHg 51%
    14:00 +16°C° 0 mm 2 mps 758 mmHg 52%
    15:00 +16°C° 0 mm 2 mps 758 mmHg 53%
    16:00 +14°C° 0 mm 3 mps 758 mmHg 57%
    17:00 +12°C° 0 mm 3 mps 758 mmHg 61%
    18:00 +10°C° 0 mm 3 mps 758 mmHg 66%
    19:00 +10°C° 0 mm 3 mps 758 mmHg 67%
    20:00 +9°C° 0 mm 2 mps 758 mmHg 68%
    21:00 +8°C° 0 mm 2 mps 758 mmHg 69%
    22:00 +8°C° 0 mm 2 mps 758 mmHg 70%
    23:00 +8°C° 0 mm 2 mps 758 mmHg 72%

    Tomorrow, 18 February, Monday

    Time Temperature Precipitation Wind Pressure Humidity
    00:00 +7°C° 0 mm 2 mps 758 mmHg 73%
    01:00 +7°C° 0 mm 2 mps 758 mmHg 74%
    02:00 +7°C° 0 mm 2 mps 758 mmHg 75%
    03:00 +6°C° 0 mm 2 mps 758 mmHg 75%
    04:00 +6°C° 0 mm 2 mps 758 mmHg 76%
    05:00 +6°C° 0 mm 2 mps 758 mmHg 76%
    06:00 +6°C° 0 mm 2 mps 758 mmHg 76%
    07:00 +7°C° 0 mm 2 mps 758 mmHg 73%
    08:00 +8°C° 0 mm 2 mps 758 mmHg 69%
    09:00 +8°C° 0 mm 2 mps 758 mmHg 66%
    10:00 +10°C° 0 mm 2 mps 757 mmHg 60%
    11:00 +13°C° 0 mm 2 mps 757 mmHg 55%
    12:00 +14°C° 0 mm 2 mps 757 mmHg 50%
    13:00 +15°C° 0 mm 2 mps 756 mmHg 50%
    14:00 +15°C° 0 mm 2 mps 756 mmHg 50%
    15:00 +15°C° 0 mm 2 mps 755 mmHg 50%
    16:00 +14°C° 0 mm 2 mps 755 mmHg 56%
    17:00 +12°C° 0 mm 2 mps 755 mmHg 62%
    18:00 +10°C° 0 mm 3 mps 755 mmHg 68%
    19:00 +9°C° 0 mm 3 mps 755 mmHg 69%
    20:00 +9°C° 0 mm 3 mps 755 mmHg 69%
    21:00 +8°C° 0 mm 3 mps 755 mmHg 69%
    22:00 +8°C° 0 mm 3 mps 755 mmHg 71%
    23:00 +8°C° 0 mm 3 mps 755 mmHg 72%

    Day after tomorrow, 19 February, Tuesday

    Time Temperature Precipitation Wind Pressure Humidity
    00:00 +7°C° 0 mm 3 mps 755 mmHg 73%
    01:00 +7°C° 0.1 mm 3 mps 755 mmHg 77%
    02:00 +6°C° 0.1 mm 4 mps 755 mmHg 81%
    03:00 +6°C° 0.1 mm 4 mps 755 mmHg 85%
    04:00 +6°C° 0.4 mm 4 mps 755 mmHg 87%
    05:00 +7°C° 0.4 mm 3 mps 755 mmHg 89%
    06:00 +7°C° 0.4 mm 3 mps 755 mmHg 91%
    07:00 +6°C° 0.1 mm 4 mps 756 mmHg 87%
    08:00 +6°C° 0.1 mm 4 mps 756 mmHg 84%
    09:00 +6°C° 0.1 mm 4 mps 757 mmHg 81%
    10:00 +7°C° 0 mm 5 mps 757 mmHg 74%
    11:00 +8°C° 0 mm 5 mps 757 mmHg 68%
    12:00 +9°C° 0 mm 5 mps 757 mmHg 61%
    13:00 +9°C° 0 mm 5 mps 757 mmHg 60%
    14:00 +9°C° 0 mm 5 mps 757 mmHg 60%
    15:00 +9°C° 0 mm 5 mps 757 mmHg 60%
    16:00 +8°C° 0 mm 4 mps 758 mmHg 64%
    17:00 +8°C° 0 mm 3 mps 758 mmHg 69%
    18:00 +7°C° 0 mm 2 mps 758 mmHg 74%
    19:00 +7°C° 0 mm 2 mps 759 mmHg 76%
    20:00 +6°C° 0 mm 2 mps 759 mmHg 79%
    21:00 +6°C° 0 mm 2 mps 759 mmHg 81%
    22:00 +5°C° 0 mm 2 mps 759 mmHg 82%
    23:00 +5°C° 0 mm 2 mps 760 mmHg 84%

    20 February, Wednesday

    Time Temperature Precipitation Wind Pressure Humidity
    00:00 +5°C° 0 mm 2 mps 760 mmHg 85%
    01:00 +5°C° 0 mm 2 mps 760 mmHg 86%
    02:00 +4°C° 0 mm 2 mps 760 mmHg 87%
    03:00 +4°C° 0 mm 2 mps 759 mmHg 88%
    04:00 +4°C° 0 mm 2 mps 759 mmHg 88%
    05:00 +4°C° 0 mm 2 mps 759 mmHg 87%
    06:00 +4°C° 0 mm 2 mps 760 mmHg 87%
    07:00 +4°C° 0 mm 3 mps 760 mmHg 80%
    08:00 +5°C° 0 mm 3 mps 760 mmHg 74%
    09:00 +7°C° 0 mm 3 mps 760 mmHg 68%
    10:00 +8°C° 0 mm 3 mps 760 mmHg 63%
    11:00 +8°C° 0 mm 4 mps 760 mmHg 58%
    12:00 +11°C° 0 mm 4 mps 760 mmHg 53%
    13:00 +11°C° 0 mm 4 mps 760 mmHg 54%
    14:00 +11°C° 0 mm 4 mps 760 mmHg 55%
    15:00 +11°C° 0 mm 4 mps 760 mmHg 55%
    16:00 +10°C° 0 mm 3 mps 760 mmHg 61%
    17:00 +9°C° 0 mm 3 mps 760 mmHg 67%
    18:00 +8°C° 0 mm 2 mps 760 mmHg 72%
    19:00 +8°C° 0 mm 3 mps 761 mmHg 73%
    20:00 +8°C° 0 mm 3 mps 761 mmHg 75%
    21:00 +8°C° 0 mm 3 mps 761 mmHg 76%
    22:00 +8°C° 0 mm 3 mps 761 mmHg 76%
    23:00 +7°C° 0 mm 3 mps 762 mmHg 77%

    21 February, Thursday

    Time Temperature Precipitation Wind Pressure Humidity
    00:00 +7°C° 0 mm 3 mps 762 mmHg 77%
    01:00 +7°C° 0 mm 3 mps 762 mmHg 78%
    02:00 +7°C° 0 mm 3 mps 762 mmHg 78%
    03:00 +7°C° 0 mm 3 mps 762 mmHg 79%
    04:00 +7°C° 0 mm 3 mps 762 mmHg 81%
    05:00 +5°C° 0 mm 3 mps 762 mmHg 82%
    06:00 +5°C° 0 mm 3 mps 763 mmHg 84%
    07:00 +7°C° 0 mm 3 mps 763 mmHg 83%
    08:00 +7°C° 0 mm 3 mps 763 mmHg 81%
    09:00 +8°C° 0 mm 3 mps 763 mmHg 80%
    10:00 +9°C° 0 mm 3 mps 763 mmHg 77%
    11:00 +10°C° 0 mm 3 mps 763 mmHg 75%
    12:00 +11°C° 0 mm 3 mps 764 mmHg 72%
    13:00 +11°C° 0.1 mm 3 mps 763 mmHg 74%
    14:00 +11°C° 0.1 mm 3 mps 763 mmHg 75%
    15:00 +12°C° 0.1 mm 2 mps 763 mmHg 77%
    16:00 +10°C° 0 mm 2 mps 763 mmHg 79%
    17:00 +10°C° 0 mm 2 mps 764 mmHg 82%
    18:00 +9°C° 0 mm 2 mps 764 mmHg 84%
    19:00 +9°C° 0 mm 2 mps 764 mmHg 84%
    20:00 +9°C° 0 mm 3 mps 765 mmHg 85%
    21:00 +9°C° 0 mm 3 mps 765 mmHg 85%
    22:00 +9°C° 0 mm 3 mps 765 mmHg 87%
    23:00 +9°C° 0 mm 3 mps 766 mmHg 89%

    22 February, Friday

    Time Temperature Precipitation Wind Pressure Humidity
    00:00 +8°C° 0 mm 2 mps 766 mmHg 91%
    01:00 +8°C° 0.1 mm 2 mps 766 mmHg 92%
    02:00 +8°C° 0.1 mm 2 mps 766 mmHg 93%
    03:00 +9°C° 0.1 mm 1 mps 766 mmHg 94%
    04:00 +9°C° 0 mm 1 mps 767 mmHg 95%
    05:00 +9°C° 0 mm 1 mps 767 mmHg 95%
    06:00 +9°C° 0 mm 1 mps 768 mmHg 96%
    07:00 +10°C° 0 mm 1 mps 768 mmHg 92%
    08:00 +10°C° 0 mm 1 mps 769 mmHg 88%
    09:00 +11°C° 0 mm 1 mps 769 mmHg 84%
    10:00 +12°C° 0 mm 1 mps 769 mmHg 76%
    11:00 +13°C° 0 mm 1 mps 770 mmHg 67%
    12:00 +14°C° 0 mm 2 mps 770 mmHg 59%
    13:00 +14°C° 0 mm 2 mps 770 mmHg 57%
    14:00 +14°C° 0 mm 2 mps 770 mmHg 56%
    15:00 +14°C° 0 mm 2 mps 769 mmHg 54%
    16:00 +13°C° 0 mm 2 mps 770 mmHg 59%
    17:00 +12°C° 0 mm 2 mps 770 mmHg 64%
    18:00 +10°C° 0 mm 2 mps 770 mmHg 69%
    19:00 +9°C° 0 mm 2 mps 770 mmHg 72%
    20:00 +9°C° 0 mm 3 mps 770 mmHg 75%
    21:00 +8°C° 0 mm 3 mps 771 mmHg 78%
    22:00 +8°C° 0 mm 3 mps 771 mmHg 81%
    23:00 +7°C° 0 mm 3 mps 771 mmHg 83%
    Show more